FENGYUN 1C DEB, 37400

Orbit data source: Space-Track

FENGYUN 1C DEB, 37400 is space debris in SSO originally from a launch on Mon, 10 May 1999 UTC launched from the Taiyaun Space Center, China (TSC). Fengyun 1C debris stems from the Chinese weather satellite Fengyun-1C, which was intentionally destroyed by a Chinese anti-satellite missile in 2007. This event dramatically increased the amount of space debris, with thousands of trackable fragments posing hazards to satellites and human spaceflight. The Fengyun 1C debris cloud has become a focal point in discussions about space sustainability and the need for international regulations to prevent the creation of new debris.

Loading next visibility...
Identifier
37400, 1999-025EFS
Orbit
SSO
Country
Flag of CNCN / PRC
Related business
Manufacturer
Unknown
Mission
Spacecraft
Bus & Motor
Unknown
Mass
Unknown
Launch date (UTC)
1999-05-10 (27 years ago)
Launch vehicle
Unknown
Launch site
Taiyaun Space Center, China (TSC)
Object type
Payload
Rocket body
Debris
Shape & HBR
Unknown shape, 0.1 m
Radar Cross Section
Small (<0.1 m²)

Expand to show TLE details & history
Last TLE update: 1 day ago

TLE from 1 day ago
0 FENGYUN 1C DEB
1 37400U 99025EFS 26237.30729475  .00000556  00000-0  43368-3 0  9999
2 37400  98.8401  57.1723 0400600 186.8897 172.6640 13.63930555836775
Epoch: 2026-08-25T07:22Z
TLE epoch observation values (Epoch: 2026-08-25T07:22:30.266Z)
Latitude
0.00004°
Longitude
-27.03034°
Altitude
1,318.518 km
Speed
7.053 km/s
True Right ascension
03h 48m 41s
True Declination
0° 00' 00"
Sunlit
Object was in daylight at epoch
Visualization orbit readout
Latitude
Unknown
Longitude
Unknown
Altitude
Unknown
Speed
Unknown
Apparent Right ascension
Unknown
Apparent Declination
Unknown
Sunlit
N/A
Visualization observer readout
Local Sidereal Time
06:21:15
Azimuth
Unknown
Elevation
Unknown
Doppler factor
Unknown
Orbital elements
Apogee altitude
1,314.992 km
Perigee altitude
722.359 km
Semi-major axis
7,396.812 km
Eccentricity
0.04006
Inclination
98.8401°
RAAN
57.1723°
Arg. of periapsis
186.8897°
True anomaly
173.22236°
Mean anomaly
172.664°
Eccentric anomaly
172.94587°
Mean motion
3.41174 °/min
Orbital period
105.52 mins
BSTAR
0.00043368
Loading maneuver chart data...
Computing Atmospheric mass density...

Documentation

Showing up to 5 results
|